« Back
NWS Peachtree City, Ga » Text Product » GA Regional Weather Roundup


Printer-friendly Version
Current Version              Previous Versions:   1  2  3  4  5  6  7  8  9  

Regional Weather Roundup

248
ASUS42 KFFC 060503
RWRGA
WEATHER ROUNDUP FOR GEORGIA
NATIONAL WEATHER SERVICE PEACHTREE CITY GA
100 AM EDT FRI MAY 06 2016

NOTE: "FAIR" INDICATES FEW OR NO CLOUDS BELOW 12,000 FEET WITH NO
SIGNIFICANT WEATHER AND/OR OBSTRUCTIONS TO VISIBILITY.

* = USE WITH CAUTION. THE STATIONS MARKED WITH AN ASTERISK MAY NOT
REPORT WEATHER SUCH AS PRECIPITATION, FOG, OR THUNDER AND ARE NOT
QUALITY CONTROLLED BY NWS.

THE REMARK "TC" DENOTES TEMPERATURE READING IN DEGREES CELSIUS.

GAZ001>058-060600-
NORTH GEORGIA

CITY           SKY/WX    TMP DP  RH WIND       PRES   REMARKS
ATLANTA        PTCLDY    49  38  65 NW14      29.87F
ATHENS         CLEAR     47  41  80 NW5       29.84R
CHAMBLEE       CLEAR     49  39  68 NW12      29.87F
PEACHTREE CITY CLEAR     49  39  68 NW6       29.90S
ROME           CLEAR     44  40  85 NE3       29.92S
WEST ATLANTA   CLEAR     49  38  65 VRB3      29.89S
GAINESVILLE    CLOUDY    48  38  68 NW9       29.86S
CARTERSVILLE   CLEAR     46  40  79 CALM      29.91F


CITY           SKY/WX    TMP DP  RH WIND       PRES   REMARKS
DALTON*        CLEAR     43  43 100 CALM      29.92S
CANTON*        CLEAR     46  36  66 CALM      29.89S
BLAIRSVILLE*     N/A    N/A N/A N/A MISG      29.89S
$$

GAZ059>098-102>109-060600-
CENTRAL GEORGIA

CITY           SKY/WX    TMP DP  RH WIND       PRES   REMARKS
AUGUSTA-BUSH   CLEAR     52  43  71 NW8       29.80R
AUGUSTA-DANIEL CLEAR     53  42  66 NW7       29.81R
COLUMBUS       CLEAR     54  37  52 NE5       29.91R
MACON          CLEAR     51  38  60 NW7       29.87S


CITY           SKY/WX    TMP DP  RH WIND       PRES   REMARKS
LAGRANGE*      CLEAR     52  43  70 CALM      29.91S
SYLVANIA*      CLEAR     54  48  81 NW7       29.80S
MILLEDGEVILLE* CLEAR     50  43  76 W7        29.85R
$$

GAZ099>101-110>166-060600-
SOUTH GEORGIA

CITY           SKY/WX    TMP DP  RH WIND       PRES   REMARKS
SAVANNAH       CLEAR     53  43  68 W7        29.81R
VALDOSTA       PTCLDY    57  45  64 N8        29.87R
ALMA           CLEAR     53  44  71 NW5       29.85R
ST SIMONS      PTCLDY    57  45  64 W5        29.83R
ALBANY         CLEAR     56  44  64 N5        29.91R
BRUNSWICK      PTCLDY    59  50  72 W3        29.84R


CITY           SKY/WX    TMP DP  RH WIND       PRES   REMARKS
BAINBRIDGE*    PTCLDY    59  48  67 W6        29.87S
MOULTRIE*      CLEAR     57  45  62 N3        29.89R
VIDALIA*       CLEAR     54  45  71 NW9       29.83R
WAYCROSS*      CLEAR     53  44  73 NW5       29.85R
DOUGLAS*       CLEAR     55  45  67 CALM      29.88R
$$




USA.gov is the U.S. government's official web portal to all federal, state and local government web resources and services.